Location: Ceske Budejovice
(48.9833°N, 14.4667°E)
Time: 05:38:10
(UTC+02:00)

ISS - Visible Passes

Search period start: 23 September 2017 00:00
Search period end: 03 October 2017 00:00
Orbit: 401 x 407 km, 51.6° (Epoch: 23 September)

Date Brightness Start Highest point End Pass type
(mag) Time Alt. Az. Time Alt. Az. Time Alt. Az.
26 Sep -2.6 20:27:30 10° SSW 20:29:49 28° SSE 20:29:49 28° SSE visible
27 Sep -2.2 19:35:50 10° S 19:38:13 19° SE 19:39:58 13° ESE visible
27 Sep -1.9 21:11:03 10° WSW 21:12:38 26° WSW 21:12:38 26° WSW visible
28 Sep -3.7 20:18:45 10° SW 20:21:58 56° SSE 20:22:37 45° ESE visible
28 Sep -0.4 21:55:15 10° W 21:55:16 10° W 21:55:16 10° W visible
29 Sep -3.0 19:26:39 10° SW 19:29:40 35° SSE 19:32:28 11° E visible
29 Sep -2.6 21:02:46 10° W 21:05:07 42° W 21:05:07 42° W visible
30 Sep -3.9 20:10:18 10° WSW 20:13:35 87° NNW 20:14:51 35° ENE visible
30 Sep -0.6 21:47:02 10° WNW 21:47:30 13° WNW 21:47:30 13° WNW visible
01 Oct -3.7 19:17:56 10° WSW 19:21:10 65° SSE 19:24:26 10° ENE visible
01 Oct -2.8 20:54:31 10° W 20:57:10 45° NW 20:57:10 45° NW visible
02 Oct -3.5 20:01:58 10° W 20:05:13 62° NNW 20:06:45 28° ENE visible
02 Oct -0.7 21:38:43 10° WNW 21:39:24 15° WNW 21:39:24 15° WNW visible
